Bonaire, Netherlands

3:31 AM AST on January 21, 2018 (GMT -0400)
Flamingo

Weather History for TNCB - November, 2013

Change the Weather History Date:

Saturday, November 23, 2013

  Actual Average Record
Temperature  
Mean Temperature 82 °F -  
Max Temperature 86 °F 85 °F 94 °F (2012)
Min Temperature 78 °F 77 °F 75 °F (2004)
Cooling Degree Days 17    
Growing Degree Days 32 (Base 50)    
Moisture  
Dew Point 76 °F    
Average Humidity 81    
Maximum Humidity 94    
Minimum Humidity 70    
Precipitation  
Precipitation 0.00 in - - ()
Sea Level Pressure  
Sea Level Pressure 29.82 in    
Wind  
Wind Speed 9 mph ()    
Max Wind Speed 17 mph    
Max Gust Speed -    
Visibility 6.2 miles    
Events      
Averages and records for this station are not official NWS values.
T = Trace of Precipitation, MM = Missing Value Source: Averaged Metar Reports

Daily Weather History Graph

Daily Weather History Graph

Search for Another Location

Airport or City:

Trip Planner

Search our weather history database for the weather conditions in past years. The results will help you decide how hot, cold, wet, or windy it might be!

Date:

Astronomy

Nov. 23, 2013 Rise Set
Actual Time 6:34 AM AST 6:04 PM AST
Civil Twilight 6:11 AM AST 6:27 PM AST
Nautical Twilight 5:45 AM AST 6:53 PM AST
Astronomical Twilight 5:19 AM AST 7:19 PM AST
Moon 11:07 PM AST (11/23) 11:07 AM AST (11/23)
Length of Visible Light 12h 15m
Length of Day
11h 30m
Waning Gibbous, 70% of the Moon is Illuminated
Nov 23
Waning Gibbous
Nov 25
Last Quarter
Dec 2
New
Dec 9
First Quarter
Dec 17
Full

Hourly Weather History & Observations

Time (AST) Temp. Heat Index Dew Point Humidity Pressure Visibility Wind Dir Wind Speed Gust Speed Precip Events Conditions
12:00 AM 80.6 °F 87.1 °F 77.0 °F 89% 29.86 in - East 6.9 mph - N/A   Unknown
1:00 AM 80.6 °F 86.2 °F 75.2 °F 84% 29.86 in - East 8.1 mph - N/A   Unknown
2:00 AM 80.6 °F 87.1 °F 77.0 °F 89% 29.83 in - East 8.1 mph - N/A   Unknown
3:00 AM 78.8 °F - 77.0 °F 94% 29.80 in - East 5.8 mph - N/A   Unknown
4:00 AM 80.6 °F 86.2 °F 75.2 °F 84% 29.80 in - East 6.9 mph - N/A   Unknown
5:00 AM 78.8 °F - 75.2 °F 89% 29.80 in - East 6.9 mph - N/A   Unknown
6:00 AM 78.8 °F - 75.2 °F 89% 29.80 in - East 5.8 mph - N/A   Unknown
7:00 AM 78.8 °F - 75.2 °F 89% 29.83 in - East 6.9 mph - N/A   Unknown
8:00 AM 82.4 °F 90.9 °F 77.0 °F 84% 29.83 in - East 10.4 mph - N/A   Unknown
9:00 AM 84.2 °F 92.3 °F 75.2 °F 74% 29.86 in 6.2 mi ENE 16.1 mph - N/A   Scattered Clouds
10:00 AM 84.2 °F 94.1 °F 77.0 °F 79% 29.89 in 6.2 mi ENE 15.0 mph - N/A   Scattered Clouds
11:00 AM 84.2 °F 92.3 °F 75.2 °F 74% 29.86 in 6.2 mi ENE 17.3 mph - N/A   Scattered Clouds
12:00 PM 84.2 °F 96.1 °F 78.8 °F 84% 29.86 in 6.2 mi East 15.0 mph - N/A   Scattered Clouds
1:00 PM 84.2 °F 94.1 °F 77.0 °F 79% 29.83 in - ENE 16.1 mph - N/A   Unknown
2:00 PM 84.2 °F 94.1 °F 77.0 °F 79% 29.80 in - ENE 16.1 mph - N/A   Unknown
3:00 PM 86.0 °F 95.1 °F 75.2 °F 70% 29.80 in - ENE 16.1 mph - N/A   Unknown
3:55 PM 84.2 °F 92.3 °F 75.2 °F 74% 29.77 in 6.2 mi ENE 15.0 mph - N/A   Scattered Clouds
5:00 PM 84.2 °F 90.9 °F 73.4 °F 70% 29.77 in 6.2 mi ENE 15.0 mph - N/A   Partly Cloudy
6:00 PM 82.4 °F 88.2 °F 73.4 °F 74% 29.77 in 6.2 mi ENE 13.8 mph - N/A   Partly Cloudy
8:00 PM 80.6 °F 85.4 °F 73.4 °F 79% 29.80 in 6.2 mi ENE 11.5 mph - N/A   Partly Cloudy
9:00 PM 80.6 °F 86.2 °F 75.2 °F 84% 29.83 in - ENE 11.5 mph - N/A   Unknown
10:00 PM 80.6 °F 85.4 °F 73.4 °F 79% 29.83 in - ENE 11.5 mph - N/A   Unknown
11:00 PM 80.6 °F 86.2 °F 75.2 °F 84% 29.83 in - ENE 10.4 mph - N/A   Unknown